Frankfort, MI

3:33 AM EDT on September 16, 2019 (GMT -0400)
Frankfort

Weather History for KFKS - August, 2019

Change the Weather History Date:

Wednesday, August 21, 2019

  Actual Average (WUND) Record (WUND)
Temperature  
Mean Temperature 74 °F -  
Max Temperature 79 °F - - (-1)
Min Temperature 68 °F - - (-1)
Cooling Degree Days 8    
Growing Degree Days 24 (Base 50)    
Moisture  
Dew Point 61 °F    
Average Humidity 69    
Maximum Humidity 92    
Minimum Humidity 38    
Precipitation  
Precipitation 0.00 in - - ()
Sea Level Pressure  
Sea Level Pressure 29.92 in    
Wind  
Wind Speed 2 mph (NNW)    
Max Wind Speed 14 mph    
Max Gust Speed 18 mph    
Visibility 7 miles    
Events Fog    
Averages and records for this station are not official NWS values.
T = Trace of Precipitation, MM = Missing Value Source: NWS Daily Summary

Daily Weather History Graph

Daily Weather History Graph

Search for Another Location

Airport or City:

Astronomy

Aug. 21, 2019 Rise Set
Actual Time 6:54 AM EDT 8:40 PM EDT
Civil Twilight 6:23 AM EDT 9:11 PM EDT
Nautical Twilight 5:45 AM EDT 9:49 PM EDT
Astronomical Twilight 5:03 AM EDT 10:30 PM EDT
Moon 11:44 PM EDT (8/21) 12:42 PM EDT (8/21)
Length of Visible Light 14h 48m
Length of Day
13h 46m
Waning Gibbous, 69% of the Moon is Illuminated
Aug 21
Waning Gibbous
Aug 23
Last Quarter
Aug 30
New
Sep 5
First Quarter
Sep 14
Full

Hourly Weather History & Observations

Time (EDT) Temp. Dew Point Humidity Pressure Visibility Wind Dir Wind Speed Gust Speed Precip Events Conditions
12:19 AM 71.6 °F 67.3 °F 86% 29.92 in 2.5 mi Calm Calm - N/A   Haze
12:37 AM 71.8 °F 67.8 °F 87% 29.92 in 3.0 mi Calm Calm - N/A   Scattered Clouds
12:55 AM 70.5 °F 66.7 °F 88% 29.92 in 2.0 mi Calm Calm - N/A   Clear
12:56 AM 70.5 °F 66.7 °F 88% 29.92 in 2.0 mi Calm Calm - N/A   Clear
1:15 AM 69.3 °F 65.7 °F 88% 29.92 in 2.5 mi Calm Calm - N/A   Scattered Clouds
1:35 AM 68.0 °F 64.2 °F 88% 29.92 in 1.0 mi Calm Calm - N/A   Overcast
1:58 AM 68.9 °F 65.8 °F 90% 29.91 in 1.5 mi Calm Calm - N/A   Overcast
2:16 AM 68.5 °F 65.5 °F 90% 29.92 in 0.2 mi Calm Calm - N/A Fog Fog
2:35 AM 68.7 °F 65.8 °F 90% 29.92 in 0.2 mi Calm Calm - N/A Fog Fog
2:55 AM 69.1 °F 66.2 °F 91% 29.92 in 3.0 mi Calm Calm - N/A   Overcast
3:19 AM 68.4 °F 65.7 °F 91% 29.92 in 2.5 mi Calm Calm - N/A   Mostly Cloudy
3:37 AM 70.0 °F 67.3 °F 91% 29.92 in 4.0 mi Calm Calm - N/A   Mostly Cloudy
3:56 AM 71.4 °F 68.7 °F 91% 29.92 in 4.0 mi Calm Calm - N/A   Overcast
4:15 AM 72.5 °F 69.8 °F 91% 29.91 in 3.0 mi Calm Calm - N/A   Overcast
4:35 AM 72.7 °F 70.0 °F 91% 29.91 in 3.0 mi Calm Calm - N/A   Overcast
4:58 AM 73.0 °F 70.2 °F 91% 29.90 in 3.0 mi Calm Calm - N/A   Overcast
5:16 AM 71.8 °F 68.9 °F 91% 29.90 in 3.0 mi Calm Calm - N/A   Overcast
5:35 AM 71.6 °F 68.4 °F 89% 29.89 in 1.5 mi Calm Calm - N/A   Mostly Cloudy
5:36 AM 71.4 °F 68.4 °F 90% 29.89 in 1.5 mi Calm Calm - N/A   Mostly Cloudy
5:55 AM 70.2 °F 67.3 °F 91% 29.88 in 0.8 mi Calm Calm - N/A   Mostly Cloudy
6:19 AM 70.0 °F 67.3 °F 91% 29.88 in 0.8 mi Calm Calm - N/A   Overcast
6:37 AM 69.3 °F 66.6 °F 91% 29.88 in 1.8 mi Calm Calm - N/A   Overcast
6:55 AM 70.0 °F 67.5 °F 92% 29.88 in 1.2 mi Calm Calm - N/A   Overcast
6:56 AM 70.2 °F 67.6 °F 92% 29.88 in 1.5 mi Calm Calm - N/A   Overcast
7:15 AM 70.3 °F 67.8 °F 92% 29.88 in 1.5 mi Calm Calm - N/A   Overcast
7:35 AM 70.5 °F 68.0 °F 92% 29.88 in 1.5 mi Calm Calm - N/A   Overcast
7:58 AM 70.5 °F 68.0 °F 92% 29.87 in 1.2 mi Calm Calm - N/A   Overcast
8:16 AM 71.6 °F 69.1 °F 92% 29.86 in 1.2 mi Calm Calm - N/A   Overcast
8:46 AM 72.1 °F 69.8 °F 92% 29.88 in 1.8 mi Calm Calm - N/A   Overcast
9:18 AM 73.4 °F 69.8 °F 88% 29.92 in 4.0 mi Calm Calm - N/A   Overcast
9:34 AM 73.9 °F 70.5 °F 89% 29.91 in 4.0 mi Calm Calm - N/A   Overcast
9:35 AM 73.9 °F 70.7 °F 90% 29.91 in 4.0 mi Calm Calm - N/A   Overcast
9:36 AM 74.1 °F 70.9 °F 90% 29.90 in 5.0 mi Calm Calm - N/A   Overcast
9:55 AM 75.2 °F 68.7 °F 80% 29.90 in 10.0 mi Calm Calm - N/A   Overcast
9:56 AM 75.2 °F 68.5 °F 80% 29.90 in 10.0 mi Calm Calm - N/A   Overcast
10:19 AM 76.5 °F 67.3 °F 73% 29.90 in 10.0 mi Calm Calm - N/A   Overcast
10:37 AM 78.3 °F 66.6 °F 67% 29.90 in 10.0 mi WNW 4.6 mph - N/A   Overcast
10:56 AM 75.4 °F 66.4 °F 73% 29.91 in 10.0 mi North 8.1 mph - N/A   Overcast
11:15 AM 75.6 °F 64.6 °F 69% 29.92 in 10.0 mi North 8.1 mph - N/A   Mostly Cloudy
11:35 AM 75.9 °F 64.2 °F 67% 29.93 in 10.0 mi North 9.2 mph - N/A   Overcast
11:59 AM 75.2 °F 63.9 °F 68% 29.91 in 10.0 mi North 6.9 mph - N/A   Mostly Cloudy
12:19 PM 77.2 °F 63.5 °F 63% 29.91 in 10.0 mi North 8.1 mph - N/A   Mostly Cloudy
12:38 PM 75.9 °F 63.5 °F 65% 29.93 in 10.0 mi NNW 8.1 mph - N/A   Mostly Cloudy
12:55 PM 76.1 °F 63.7 °F 65% 29.93 in 10.0 mi NNW 8.1 mph 16.1 mph N/A   Mostly Cloudy
1:19 PM 75.9 °F 63.5 °F 65% 29.93 in 10.0 mi NW 11.5 mph 16.1 mph N/A   Mostly Cloudy
1:35 PM 75.2 °F 62.6 °F 65% 29.93 in 10.0 mi NNW 6.9 mph - N/A   Mostly Cloudy
1:36 PM 75.4 °F 62.8 °F 65% 29.93 in 10.0 mi NNW 5.8 mph - N/A   Mostly Cloudy
1:55 PM 76.5 °F 61.7 °F 60% 29.93 in 10.0 mi NNW 8.1 mph - N/A   Scattered Clouds
2:15 PM 76.1 °F 62.1 °F 62% 29.93 in 10.0 mi North 13.8 mph 17.3 mph N/A   Clear
2:56 PM 75.4 °F 57.6 °F 54% 29.95 in 10.0 mi NNW 8.1 mph 18.4 mph N/A   Scattered Clouds
3:22 PM 76.5 °F 54.5 °F 46% 29.93 in 10.0 mi North 9.2 mph - N/A   Clear
3:48 PM 76.6 °F 52.9 °F 43% 29.93 in 10.0 mi NNW 6.9 mph - N/A   Clear
3:57 PM 76.6 °F 52.3 °F 43% 29.93 in 10.0 mi North 8.1 mph - N/A   Clear
4:17 PM 77.0 °F 50.5 °F 39% 29.93 in 10.0 mi NNW 6.9 mph - N/A   Clear
4:43 PM 78.4 °F 51.3 °F 39% 29.93 in 10.0 mi NNW 4.6 mph - N/A   Clear
4:55 PM 78.6 °F 50.9 °F 38% 29.93 in 10.0 mi NW 6.9 mph - N/A   Clear
4:56 PM 78.6 °F 51.1 °F 38% 29.93 in 10.0 mi NW 6.9 mph - N/A   Clear
5:19 PM 79.0 °F 51.8 °F 39% 29.93 in 10.0 mi North 8.1 mph - N/A   Clear
5:37 PM 78.8 °F 52.5 °F 40% 29.94 in 10.0 mi West 8.1 mph - N/A   Clear
6:17 PM 77.0 °F 51.8 °F 41% 29.94 in 10.0 mi WSW 4.6 mph - N/A   Clear
6:40 PM 75.7 °F 54.7 °F 48% 29.94 in 10.0 mi WSW 4.6 mph - N/A   Clear
6:58 PM 76.3 °F 53.4 °F 45% 29.94 in 10.0 mi West 3.5 mph - N/A   Mostly Cloudy
7:19 PM 74.3 °F 55.2 °F 51% 29.93 in 10.0 mi Calm Calm - N/A   Overcast
7:37 PM 74.1 °F 56.3 °F 54% 29.93 in 10.0 mi Calm Calm - N/A   Overcast
7:55 PM 74.3 °F 55.9 °F 53% 29.93 in 10.0 mi Calm Calm - N/A   Mostly Cloudy
7:56 PM 74.5 °F 55.9 °F 52% 29.93 in 10.0 mi Calm Calm - N/A   Mostly Cloudy
8:31 PM 71.1 °F 56.3 °F 60% 29.93 in 10.0 mi North 3.5 mph - N/A   Mostly Cloudy
8:36 PM 70.7 °F 55.8 °F 59% 29.94 in 10.0 mi North 4.6 mph - N/A   Mostly Cloudy
8:55 PM 70.7 °F 54.0 °F 55% 29.94 in 10.0 mi North 5.8 mph - N/A   Scattered Clouds
8:56 PM 70.7 °F 54.0 °F 55% 29.94 in 10.0 mi North 5.8 mph - N/A   Scattered Clouds
9:15 PM 70.3 °F 52.2 °F 52% 29.95 in 10.0 mi NNE 4.6 mph - N/A   Scattered Clouds
9:24 PM 70.2 °F 52.2 °F 53% 29.95 in 10.0 mi NNE 5.8 mph - N/A   Scattered Clouds
9:38 PM 69.8 °F 52.0 °F 53% 29.95 in 10.0 mi NNE 4.6 mph - N/A   Clear
9:56 PM 69.4 °F 51.4 °F 53% 29.96 in 10.0 mi NNE 5.8 mph - N/A   Clear
10:15 PM 69.1 °F 51.3 °F 53% 29.96 in 10.0 mi NNE 4.6 mph - N/A   Clear
10:35 PM 68.4 °F 50.9 °F 54% 29.97 in 10.0 mi NNE 3.5 mph - N/A   Clear
10:36 PM 68.4 °F 50.9 °F 54% 29.97 in 10.0 mi Calm Calm - N/A   Clear
10:59 PM 68.2 °F 50.2 °F 53% 29.98 in 10.0 mi NNE 3.5 mph - N/A   Clear
11:17 PM 68.4 °F 49.5 °F 51% 29.99 in 10.0 mi Calm Calm - N/A   Clear
11:35 PM 68.0 °F 50.5 °F 54% 29.99 in 10.0 mi Calm Calm - N/A   Clear
11:55 PM 68.0 °F 51.1 °F 55% 30.00 in 10.0 mi NNE 3.5 mph - N/A   Clear
11:56 PM 68.0 °F 51.1 °F 55% 30.00 in 10.0 mi NNE 4.6 mph - N/A   Clear